DW3588 Weather Reports


Display with metric or nautical units.
time (UTC)temp
F
wind
direction
speed
MPH
gust
MPH
rain 1hr
in
rain 24hr
in
rain mn
in
humidity
%
barometer
mb
20260901050125 61 278 7.0 13.0 0.00 0.00 0.00 69 1012.4
20260901045357 61 259 8.0 14.0 0.00 0.00 0.00 69 1012.4
20260901044857 61 250 8.0 14.0 0.00 0.00 0.00 69 1012.4
20260901044358 61 274 6.0 12.0 0.00 0.00 0.00 69 1012.3
20260901043855 61 244 5.0 10.0 0.00 0.00 0.00 69 1012.2
20260901043356 61 251 5.0 9.0 0.00 0.00 0.00 68 1012.2
20260901042854 62 261 4.0 9.0 0.00 0.00 0.00 68 1012.2
20260901042616 62 275 3.0 8.0 0.00 0.00 0.00 68 1012.1
20260901041852 62 266 3.0 9.0 0.00 0.00 0.00 67 1012.2
20260901041352 62 231 3.0 9.0 0.00 0.00 0.00 68 1012.1
20260901040852 62 268 4.0 11.0 0.00 0.00 0.00 67 1011.9
20260901040349 62 262 5.0 11.0 0.00 0.00 0.00 67 1011.8
20260901035849 62 234 4.0 10.0 0.00 0.00 0.00 67 1011.8
20260901035350 63 242 4.0 10.0 0.00 0.00 0.00 67 1011.8
20260901034846 63 259 3.0 7.0 0.00 0.00 0.00 67 1011.7
20260901034346 63 240 4.0 8.0 0.00 0.00 0.00 66 1011.7
20260901033845 63 232 3.0 8.0 0.00 0.00 0.00 66 1011.6
20260901033346 63 269 3.0 8.0 0.00 0.00 0.00 66 1011.5
20260901032841 63 230 4.0 8.0 0.00 0.00 0.00 66 1011.4
20260901032339 64 243 3.0 9.0 0.00 0.00 0.00 66 1011.3
20260901031839 64 276 4.0 9.0 0.00 0.00 0.00 65 1011.2
20260901031553 64 249 4.0 10.0 0.00 0.00 0.00 65 1011.1
20260901031054 64 245 5.0 10.0 0.00 0.00 0.00 65 1011.0
20260901030332 64 289 5.0 9.0 0.00 0.00 0.00 65 1010.9
20260901025831 64 268 5.0 9.0 0.00 0.00 0.00 64 1011.0
20260901025332 65 273 5.0 12.0 0.00 0.00 0.00 64 1011.0
20260901025055 65 275 5.0 12.0 0.00 0.00 0.00 64 1010.9
20260901024328 65 265 5.0 9.0 0.00 0.00 0.00 64 1010.9
20260901023829 65 259 5.0 10.0 0.00 0.00 0.00 63 1010.9
20260901023541 66 292 6.0 10.0 0.00 0.00 0.00 62 1010.9
20260901022822 66 265 5.0 11.0 0.00 0.00 0.00 61 1010.9
20260901022319 66 281 5.0 11.0 0.00 0.00 0.00 61 1010.8
20260901021819 67 259 6.0 10.0 0.00 0.00 0.00 61 1010.7
20260901021319 67 260 6.0 10.0 0.00 0.00 0.00 60 1010.7
20260901020819 68 273 5.0 10.0 0.00 0.00 0.00 59 1010.7
20260901020318 68 266 5.0 10.0 0.00 0.00 0.00 58 1010.8
20260901015818 68 236 6.0 10.0 0.00 0.00 0.00 58 1010.8
20260901015316 69 255 6.0 10.0 0.00 0.00 0.00 57 1010.8
20260901014818 69 274 6.0 11.0 0.00 0.00 0.00 56 1010.8
20260901014221 70 292 5.0 11.0 0.00 0.00 0.00 56 1010.8
20260901013720 70 246 5.0 10.0 0.00 0.00 0.00 55 1010.7
20260901013217 70 279 5.0 10.0 0.00 0.00 0.00 55 1010.8
20260901012715 71 273 6.0 10.0 0.00 0.00 0.00 54 1010.7
20260901012656 71 243 7.0 12.0 0.00 0.00 0.00 54 1010.7
20260901011709 71 239 7.0 12.0 0.00 0.00 0.00 53 1010.6
20260901011209 72 267 7.0 12.0 0.00 0.00 0.00 52 1010.6
20260901010707 72 265 7.0 17.0 0.00 0.00 0.00 52 1010.5
20260901010207 72 258 8.0 17.0 0.00 0.00 0.00 52 1010.5
20260901005929 73 266 8.0 13.0 0.00 0.00 0.00 51 1010.5
20260901005206 73 292 7.0 13.0 0.00 0.00 0.00 51 1010.4
20260901004706 73 311 6.0 13.0 0.00 0.00 0.00 50 1010.3
20260901004207 74 275 5.0 12.0 0.00 0.00 0.00 49 1010.4
20260901003925 74 244 6.0 12.0 0.00 0.00 0.00 49 1010.4
20260901003206 74 281 7.0 12.0 0.00 0.00 0.00 48 1010.4
20260901002705 74 254 7.0 13.0 0.00 0.00 0.00 48 1010.4
20260901002205 74 256 8.0 15.0 0.00 0.00 0.00 47 1010.5
20260901001704 75 266 8.0 15.0 0.00 0.00 0.00 47 1010.5
20260901001201 75 227 7.0 13.0 0.00 0.00 0.00 46 1010.5
20260901000924 76 229 7.0 14.0 0.00 0.00 0.00 46 1010.4
20260901000159 76 248 7.0 14.0 0.00 0.00 0.00 45 1010.5
20260831235659 76 258 7.0 15.0 0.00 0.00 0.00 45 1010.5
20260831235159 76 230 8.0 15.0 0.00 0.00 0.00 45 1010.6
20260831234658 77 260 7.0 14.0 0.00 0.00 0.00 45 1010.6
20260831234152 77 234 7.0 13.0 0.00 0.00 0.00 45 1010.6
20260831233652 77 236 7.0 13.0 0.00 0.00 0.00 45 1010.6
20260831233152 77 277 7.0 13.0 0.00 0.00 0.00 44 1010.6
20260831232650 77 267 7.0 13.0 0.00 0.00 0.00 44 1010.6
20260831232151 77 284 7.0 13.0 0.00 0.00 0.00 44 1010.6
20260831231651 78 320 7.0 14.0 0.00 0.00 0.00 43 1010.6
20260831231142 78 258 7.0 14.0 0.00 0.00 0.00 44 1010.7
20260831230641 78 221 7.0 12.0 0.00 0.00 0.00 41 1010.6
20260831230141 78 266 7.0 12.0 0.00 0.00 0.00 42 1010.6
20260831225640 78 238 7.0 12.0 0.00 0.00 0.00 42 1010.7
20260831225141 78 226 7.0 14.0 0.00 0.00 0.00 43 1010.8
20260831224640 78 246 7.0 14.0 0.00 0.00 0.00 43 1010.7
20260831224400 78 244 7.0 14.0 0.00 0.00 0.00 42 1010.9
20260831223639 78 232 6.0 12.0 0.00 0.00 0.00 43 1010.9
20260831223136 78 238 7.0 12.0 0.00 0.00 0.00 43 1011.0
20260831222636 78 227 8.0 13.0 0.00 0.00 0.00 42 1011.0
20260831222403 79 225 9.0 15.0 0.00 0.00 0.00 42 1011.0
20260831221627 79 260 8.0 15.0 0.00 0.00 0.00 42 1011.1
20260831221126 79 238 7.0 14.0 0.00 0.00 0.00 42 1011.1
20260831220626 80 253 7.0 12.0 0.00 0.00 0.00 41 1011.2
20260831220125 80 219 6.0 12.0 0.00 0.00 0.00 41 1011.3
20260831215623 79 300 5.0 12.0 0.00 0.00 0.00 42 1011.3
20260831215347 79 301 5.0 10.0 0.00 0.00 0.00 41 1011.3
20260831214620 79 281 6.0 12.0 0.00 0.00 0.00 42 1011.4
20260831214118 79 320 6.0 13.0 0.00 0.00 0.00 41 1011.5
20260831213841 79 274 7.0 13.0 0.00 0.00 0.00 41 1011.5
20260831213119 79 242 7.0 12.0 0.00 0.00 0.00 42 1011.6
20260831212619 78 276 7.0 14.0 0.00 0.00 0.00 43 1011.7
20260831212340 79 300 7.0 14.0 0.00 0.00 0.00 42 1011.7
20260831211617 79 254 7.0 13.0 0.00 0.00 0.00 42 1011.7
20260831211116 80 224 7.0 12.0 0.00 0.00 0.00 42 1011.8
20260831210615 79 274 7.0 12.0 0.00 0.00 0.00 42 1011.8
20260831210115 80 246 6.0 12.0 0.00 0.00 0.00 41 1011.8
20260831205833 80 233 5.0 12.0 0.00 0.00 0.00 41 1011.8
20260831205113 81 244 5.0 12.0 0.00 0.00 0.00 40 1011.8
20260831204612 81 287 6.0 12.0 0.00 0.00 0.00 39 1011.8
20260831204112 81 238 5.0 10.0 0.00 0.00 0.00 40 1011.9
20260831203602 80 215 6.0 11.0 0.00 0.00 0.00 42 1011.9
20260831203101 79 267 7.0 15.0 0.00 0.00 0.00 43 1011.9
20260831202558 80 241 6.0 15.0 0.00 0.00 0.00 42 1011.9
20260831202059 80 274 5.0 10.0 0.00 0.00 0.00 41 1012.0
20260831201824 80 187 4.0 11.0 0.00 0.00 0.00 41 1011.9
20260831201056 80 294 4.0 11.0 0.00 0.00 0.00 40 1011.8
20260831200555 81 215 5.0 12.0 0.00 0.00 0.00 40 1011.9
20260831200054 80 232 5.0 12.0 0.00 0.00 0.00 41 1011.8
20260831195813 78 196 3.0 11.0 0.00 0.00 0.00 43 1011.9
20260831195053 78 300 2.0 11.0 0.00 0.00 0.00 44 1011.8
20260831194547 76 101 1.0 4.0 0.00 0.00 0.00 45 1011.9
20260831194048 78 264 2.0 6.0 0.00 0.00 0.00 45 1012.0
20260831193546 78 290 2.0 6.0 0.00 0.00 0.00 44 1012.1
20260831193045 77 218 1.0 6.0 0.00 0.00 0.00 47 1012.2
20260831192544 76 137 2.0 6.0 0.00 0.00 0.00 47 1012.2
20260831192044 76 220 3.0 6.0 0.00 0.00 0.00 47 1012.3
20260831191557 76 182 3.0 9.0 0.00 0.00 0.00 47 1012.3
20260831191257 76 252 3.0 9.0 0.00 0.00 0.00 46 1012.4
20260831190539 76 193 3.0 8.0 0.00 0.00 0.00 48 1012.3
20260831190037 76 225 3.0 8.0 0.00 0.00 0.00 46 1012.4
20260831185537 75 223 3.0 8.0 0.00 0.00 0.00 48 1012.4
20260831185034 76 229 3.0 7.0 0.00 0.00 0.00 47 1012.5
20260831184534 74 159 2.0 7.0 0.00 0.00 0.00 49 1012.5
20260831184033 74 182 3.0 8.0 0.00 0.00 0.00 50 1012.5
20260831183531 75 250 3.0 8.0 0.00 0.00 0.00 48 1012.5
20260831183031 75 200 2.0 7.0 0.00 0.00 0.00 48 1012.5
20260831182530 74 90 2.0 6.0 0.00 0.00 0.00 49 1012.5
20260831182027 74 236 2.0 8.0 0.00 0.00 0.00 49 1012.5
20260831181524 74 228 2.0 8.0 0.00 0.00 0.00 51 1012.5
20260831181014 71 205 1.0 3.0 0.00 0.00 0.00 55 1012.5
20260831180512 70 13 2.0 3.0 0.00 0.00 0.00 57 1012.5
20260831180453 70 10 1.0 4.0 0.00 0.00 0.00 60 1012.4
20260831175511 70 79 1.0 4.0 0.00 0.00 0.00 58 1012.4
20260831175008 69 82 2.0 6.0 0.00 0.00 0.00 60 1012.4
20260831174955 69 82 1.0 6.0 0.00 0.00 0.00 61 1012.4
20260831174008 68 103 1.0 4.0 0.00 0.00 0.00 63 1012.4
20260831173726 67 113 2.0 4.0 0.00 0.00 0.00 64 1012.4
20260831173006 67 111 2.0 4.0 0.00 0.00 0.00 64 1012.3
20260831172504 66 70 2.0 5.0 0.00 0.00 0.00 65 1012.4
20260831172004 66 61 2.0 5.0 0.00 0.00 0.00 65 1012.4
20260831171505 65 92 2.0 5.0 0.00 0.00 0.00 65 1012.3
20260831171221 65 61 1.0 4.0 0.00 0.00 0.00 65 1012.2
20260831170455 65 93 1.0 4.0 0.00 0.00 0.00 66 1012.2
20260831165954 65 96 2.0 4.0 0.00 0.00 0.00 68 1012.2
20260831165454 64 89 2.0 4.0 0.00 0.00 0.00 71 1012.1
20260831164945 63 63 2.0 4.0 0.00 0.00 0.00 71 1012.0
20260831164711 62 67 2.0 4.0 0.00 0.00 0.00 73 1012.1
20260831164204 62 69 2.0 5.0 0.00 0.00 0.00 74 1012.0
20260831163709 61 71 2.0 5.0 0.00 0.00 0.00 75 1011.9
20260831162941 61 65 2.0 5.0 0.00 0.00 0.00 76 1011.9
20260831162440 61 66 2.0 5.0 0.00 0.00 0.00 77 1011.9
20260831162159 60 67 1.0 4.0 0.00 0.00 0.00 78 1011.8
20260831161440 60 69 1.0 4.0 0.00 0.00 0.00 79 1011.8
20260831160937 60 71 1.0 4.0 0.00 0.00 0.00 80 1011.8
20260831160436 59 65 1.0 4.0 0.00 0.00 0.00 80 1011.7
20260831155935 59 35 0.0 3.0 0.00 0.00 0.00 81 1011.7
20260831155436 59 32 0.0 2.0 0.00 0.00 0.00 80 1011.7
20260831155152 58 32 0.0 1.0 0.00 0.00 0.00 81 1011.7
20260831154436 58 32 0.0 1.0 0.00 0.00 0.00 81 1011.7
20260831154200 58 32 0.0 1.0 0.00 0.00 0.00 81 1011.6
20260831153432 58 32 0.0 1.0 0.00 0.00 0.00 82 1011.7
20260831152931 58 31 0.0 2.0 0.00 0.00 0.00 82 1011.6
20260831152430 58 30 0.0 2.0 0.00 0.00 0.00 82 1011.7
20260831151931 57 30 0.0 1.0 0.00 0.00 0.00 83 1011.7
20260831151420 57 30 0.0 1.0 0.00 0.00 0.00 83 1011.7
20260831150918 57 30 0.0 0.0 0.00 0.00 0.00 83 1011.7
20260831150410 57 30 0.0 0.0 0.00 0.00 0.00 83 1011.5
20260831145907 57 30 0.0 1.0 0.00 0.00 0.00 83 1011.6
20260831145406 57 30 0.0 1.0 0.00 0.00 0.00 83 1011.5
20260831144908 57 30 0.0 1.0 0.00 0.00 0.00 83 1011.5
20260831144407 57 30 0.0 1.0 0.00 0.00 0.00 82 1011.5
20260831144124 57 30 0.0 0.0 0.00 0.00 0.00 82 1011.5
20260831143400 57 30 0.0 0.0 0.00 0.00 0.00 82 1011.4
20260831142900 57 30 0.0 0.0 0.00 0.00 0.00 82 1011.4
20260831142358 57 30 0.0 1.0 0.00 0.00 0.00 82 1011.3
20260831142121 57 30 0.0 1.0 0.00 0.00 0.00 82 1011.2
20260831141358 57 30 0.0 1.0 0.00 0.00 0.00 82 1011.2
20260831140852 57 30 0.0 0.0 0.00 0.00 0.00 83 1011.1
20260831140350 57 30 0.0 1.0 0.00 0.00 0.00 83 1011.0
20260831140338 57 30 0.0 1.0 0.00 0.00 0.00 83 1011.0
20260831135347 57 30 0.0 0.0 0.00 0.00 0.00 83 1010.9
20260831134845 57 30 0.0 1.0 0.00 0.00 0.00 83 1010.8
20260831134343 57 30 0.0 1.0 0.00 0.00 0.00 83 1010.7
20260831133841 56 30 0.0 0.0 0.00 0.00 0.00 83 1010.7
20260831133340 56 30 0.0 0.0 0.00 0.00 0.00 83 1010.6
20260831132837 56 30 0.0 0.0 0.00 0.00 0.00 83 1010.6
20260831132338 57 30 0.0 0.0 0.00 0.00 0.00 83 1010.6
20260831131836 57 30 0.0 0.0 0.00 0.00 0.00 83 1010.6
20260831131549 57 30 0.0 0.0 0.00 0.00 0.00 83 1010.5
20260831131055 57 30 0.0 0.0 0.00 0.00 0.00 83 1010.6
20260831130329 57 30 0.0 2.0 0.00 0.00 0.00 83 1010.5
20260831130055 57 30 0.0 3.0 0.00 0.00 0.00 83 1010.4
20260831125325 58 30 0.0 3.0 0.00 0.00 0.00 82 1010.3
20260831124824 58 302 0.0 0.0 0.00 0.00 0.00 82 1010.4
20260831124547 58 303 0.0 1.0 0.00 0.00 0.00 81 1010.3
20260831123816 58 303 0.0 2.0 0.00 0.00 0.00 80 1010.3
20260831123314 58 303 1.0 3.0 0.00 0.00 0.00 79 1010.2
20260831122813 58 303 1.0 5.0 0.00 0.00 0.00 78 1010.2
20260831122536 58 304 1.0 5.0 0.00 0.00 0.00 80 1010.2
20260831121810 58 293 0.0 4.0 0.00 0.00 0.00 82 1010.2
20260831121308 58 195 0.0 1.0 0.00 0.00 0.00 82 1010.2
20260831120806 58 195 0.0 0.0 0.00 0.00 0.00 82 1010.1
20260831120304 58 195 0.0 0.0 0.00 0.00 0.00 82 1010.1
20260831120257 58 195 0.0 0.0 0.00 0.00 0.00 82 1010.1
20260831115306 58 195 0.0 1.0 0.00 0.00 0.00 81 1010.1
20260831115248 58 195 0.0 1.0 0.00 0.00 0.00 81 1010.0
20260831114526 58 196 0.0 1.0 0.00 0.00 0.00 81 1010.0
20260831113800 58 223 0.0 1.0 0.00 0.00 0.00 80 1010.0
20260831113257 58 223 0.0 1.0 0.00 0.00 0.00 80 1009.9
20260831112758 59 223 0.0 1.0 0.00 0.00 0.00 80 1009.9
20260831112256 59 223 0.0 1.0 0.00 0.00 0.00 79 1009.9
20260831111753 59 223 0.0 0.0 0.00 0.00 0.00 79 1009.8
20260831111254 59 223 0.0 0.0 0.00 0.00 0.00 78 1009.8
20260831110752 59 223 0.0 0.0 0.00 0.00 0.00 78 1009.8
20260831110250 59 223 0.0 0.0 0.00 0.00 0.00 77 1009.8
20260831105747 60 223 0.0 1.0 0.00 0.00 0.00 77 1009.8
20260831105242 60 223 0.0 1.0 0.00 0.00 0.00 76 1009.8
20260831104739 60 223 0.0 1.0 0.00 0.00 0.00 75 1009.8
20260831104454 60 222 0.0 0.0 0.00 0.00 0.00 74 1009.8
20260831103738 60 222 0.0 0.0 0.00 0.00 0.00 73 1009.8
20260831103238 60 222 0.0 0.0 0.00 0.00 0.00 72 1009.8
20260831102954 61 222 0.0 0.0 0.00 0.00 0.00 70 1009.8
20260831102234 61 222 0.0 2.0 0.00 0.00 0.00 69 1009.8
20260831101731 61 222 0.0 2.0 0.00 0.00 0.00 69 1009.8
20260831101231 61 223 0.0 0.0 0.00 0.00 0.00 69 1009.7
20260831100729 61 223 0.0 0.0 0.00 0.00 0.00 67 1009.6
20260831100224 61 223 0.0 0.0 0.00 0.00 0.00 66 1009.7
20260831095722 61 223 0.0 0.0 0.00 0.00 0.00 65 1009.7
20260831095219 62 223 0.0 0.0 0.00 0.00 0.00 65 1009.7
20260831094718 62 223 0.0 0.0 0.00 0.00 0.00 64 1009.6
20260831094441 62 223 0.0 1.0 0.00 0.00 0.00 64 1009.6
20260831093719 62 223 0.0 1.0 0.00 0.00 0.00 65 1009.6
20260831093214 62 223 0.0 0.0 0.00 0.00 0.00 65 1009.5
20260831092717 62 223 0.0 0.0 0.00 0.00 0.00 65 1009.6
20260831092215 62 223 0.0 0.0 0.00 0.00 0.00 64 1009.6
20260831091936 62 223 0.0 0.0 0.00 0.00 0.00 63 1009.6
20260831091211 62 223 0.0 0.0 0.00 0.00 0.00 63 1009.7
20260831090707 62 223 0.0 0.0 0.00 0.00 0.00 63 1009.6
20260831090208 62 223 0.0 0.0 0.00 0.00 0.00 62 1009.6
20260831085708 63 223 0.0 0.0 0.00 0.00 0.00 61 1009.6
20260831085207 63 223 0.0 0.0 0.00 0.00 0.00 60 1009.6
20260831084705 64 223 0.0 0.0 0.00 0.00 0.00 60 1009.6
20260831084206 64 223 0.0 0.0 0.00 0.00 0.00 59 1009.6
20260831083703 64 223 0.0 0.0 0.00 0.00 0.00 58 1009.7
20260831083200 64 223 0.0 1.0 0.00 0.00 0.00 58 1009.6
20260831082700 64 223 0.0 2.0 0.00 0.00 0.00 59 1009.6
20260831082157 64 223 0.0 2.0 0.00 0.00 0.00 57 1009.6
20260831081656 64 223 0.0 0.0 0.00 0.00 0.00 56 1009.7
20260831081154 64 223 0.0 1.0 0.00 0.00 0.00 56 1009.7
20260831080651 64 223 0.0 2.0 0.00 0.00 0.00 56 1009.7
20260831080151 64 223 0.0 2.0 0.00 0.00 0.00 57 1009.7
20260831075649 64 223 0.0 0.0 0.00 0.00 0.00 55 1009.8
20260831075150 64 223 0.0 2.0 0.00 0.00 0.00 55 1009.8
20260831074645 64 223 0.0 2.0 0.00 0.00 0.00 55 1009.8
20260831074143 64 223 0.0 0.0 0.00 0.00 0.00 54 1009.8
20260831073645 65 223 0.0 0.0 0.00 0.00 0.00 53 1009.7
20260831073143 65 223 0.0 0.0 0.00 0.00 0.00 53 1009.8
20260831072643 65 223 0.0 0.0 0.00 0.00 0.00 53 1009.7
20260831072143 66 223 0.0 2.0 0.00 0.00 0.00 52 1009.7
20260831071640 66 223 0.0 2.0 0.00 0.00 0.00 52 1009.7
20260831071138 66 223 0.0 0.0 0.00 0.00 0.00 50 1009.7
20260831070637 67 223 0.0 3.0 0.00 0.00 0.00 50 1009.7
20260831070406 67 223 0.0 3.0 0.00 0.00 0.00 50 1009.7
20260831065635 67 223 0.0 1.0 0.00 0.00 0.00 50 1009.7
20260831065134 67 223 0.0 3.0 0.00 0.00 0.00 50 1009.8
20260831064631 68 223 1.0 3.0 0.00 0.00 0.00 49 1009.8
20260831064130 68 223 0.0 3.0 0.00 0.00 0.00 49 1009.8
20260831063630 67 224 0.0 2.0 0.00 0.00 0.00 49 1009.8
20260831063131 67 224 0.0 0.0 0.00 0.00 0.00 49 1009.9
20260831062614 68 224 0.0 2.0 0.00 0.00 0.00 48 1009.9
20260831062113 68 224 0.0 2.0 0.00 0.00 0.00 47 1009.9
20260831061612 68 225 0.0 2.0 0.00 0.00 0.00 48 1009.9
20260831061111 69 225 0.0 2.0 0.00 0.00 0.00 48 1010.0
20260831060609 69 225 1.0 2.0 0.00 0.00 0.00 48 1010.0
20260831060107 69 225 1.0 4.0 0.00 0.00 0.00 48 1010.0
20260831055607 69 226 1.0 4.0 0.00 0.00 0.00 48 1010.0
20260831055105 69 251 1.0 3.0 0.00 0.00 0.00 48 1010.1
20260831054824 69 257 0.0 3.0 0.00 0.00 0.00 47 1010.1
20260831054059 69 259 0.0 2.0 0.00 0.00 0.00 46 1010.1
20260831053555 69 259 0.0 2.0 0.00 0.00 0.00 45 1010.1
20260831053053 69 261 0.0 1.0 0.00 0.00 0.00 44 1010.1
20260831053024 69 261 0.0 0.0 0.00 0.00 0.00 44 1010.2
20260831052640 69 261 0.0 0.0 0.00 0.00 0.00 44 1010.1
20260831051542 69 261 0.0 0.0 0.00 0.00 0.00 44 1010.2
20260831051042 69 261 0.0 1.0 0.00 0.00 0.00 44 1010.2
20260831050539 69 261 0.0 1.0 0.00 0.00 0.00 43 1010.2